[Iaude] MPEC M108: 2024 MK [a=2.23,e=0.55,i=8.5,H=21.88]
    mpec at cfa.harvard.edu 
    mpec at cfa.harvard.edu
       
    Fri Jun 28 14:53:43 EDT 2024
    
    
  
M.P.E.C. 2024-M108                                Issued 2024 June 28, 18:50 UT
     The Minor Planet Electronic Circulars contain information on unusual
         minor planets, routine data on comets and natural satellites,
         and occasional editorial announcements.  They are published
    on behalf of Division F of the International Astronomical Union by the
          Minor Planet Center, Smithsonian Astrophysical Observatory,
                          Cambridge, MA 02138, U.S.A.
			  
             Prepared using the Tamkin Foundation Computer Network
                              MPC at CFA.HARVARD.EDU
            URL https://www.minorplanetcenter.net/    ISSN 1523-6714
                                    2024 MK                                     
                           Revision to MPEC 2024-M31                            
Additional Observations:
     K24M00K  C2014 07 27.62893600 40 04.050+49 33 55.38               VEM108F51
     K24M00K  C2014 07 27.63027300 40 04.019+49 33 54.22         20.98GVEM108F51
     K24M00K  C2014 07 29.63143100 39 55.307+49 04 51.14         20.77GVEM108F51
     K24M00K  C2014 09 07.42662400 13 12.482+40 05 42.85         21.24GVEM108F51
     K24M00K  C2014 09 07.43793200 13 11.619+40 05 28.86         22.35GVEM108F51
     K24M00K  C2014 09 07.44926800 13 10.731+40 05 15.15         21.41GVEM108F51
     K24M00K  C2014 09 07.46065500 13 09.836+40 05 00.95         21.09GVEM108F51
     K24M00K 1C2024 06 23.59419 13 12 40.19 -45 48 23.2                VEM108Q62
     K24M00K 1C2024 06 23.59844 13 12 40.86 -45 48 20.9          16.6 GVEM108Q62
     K24M00K 1C2024 06 24.35586 13 15 52.66 -45 58 19.4                VEM108Q62
     K24M00K 1C2024 06 24.35798 13 15 52.86 -45 58 21.2          16.1 GVEM108Q62
     K24M00K 0B2024 06 27.82079 14 00 35.393-47 23 48.30         14.1 VZEM108M49
     K24M00K 0B2024 06 27.82971 14 00 51.905-47 23 59.53         13.9 VZEM108M49
     K24M00K 0B2024 06 27.83860 14 01 08.642-47 24 08.75         13.7 VZEM108M49
     K24M00K 0B2024 06 27.84811 14 01 26.834-47 24 16.45         14.1 VZEM108M49
     K24M00K 0B2024 06 27.85752 14 01 45.166-47 24 22.03         14.1 VZEM108M49
     K24M00K 0B2024 06 27.86641 14 02 02.801-47 24 25.49         14.4 VZEM108M49
     K24M00K aC2024 06 28.42038 14 35 55.401-47 39 01.65         13.6 VqEM108Q62
     K24M00K aC2024 06 28.42419 14 36 12.362-47 38 59.28         13.6 VqEM108Q62
     K24M00K aC2024 06 28.42841 14 36 31.462-47 38 56.40         14.0 VqEM108Q62
     K24M00K aC2024 06 28.43338 14 36 54.197-47 38 52.84         13.6 VqEM108Q62
     K24M00K 1C2024 06 28.44043 14 37 26.63 -47 38 45.1                VEM108Q62
     K24M00K 1C2024 06 28.44079 14 37 28.30 -47 38 44.7                VEM108Q62
     K24M00K 1C2024 06 28.44115 14 37 29.97 -47 38 44.2                VEM108Q62
     K24M00K 1C2024 06 28.44152 14 37 31.66 -47 38 43.8                VEM108Q62
     K24M00K 1C2024 06 28.44187 14 37 33.30 -47 38 43.3          12.7 GVEM108Q62
Observer details:
F51 Pan-STARRS 1, Haleakala.  Observers J. Herman, T. Lowe, P. Minguez, A.
    Schultz, I. Smith.  Measurers K. Chambers, T. de Boer, J. Fairlamb, H.
    Gao, M. Huber, C.-C. Lin, E. Magnier, Y. Ramanjooloo, R. Wainscoat, R.
    Weryk.  1.8-m Ritchey-Chretien + CCD.
M49 IAS Remote Observatory, Hakos.  Observers D. Husar, M. Junius.  Measurer
    D. Husar.  0.25-m f/4.5 reflector + CMO.
Q62 iTelescope Observatory, Siding Spring.  Observers H. Sato, K. Yoshimoto.
    0.51-m f/6.8 astrograph + CCD, 0.13-m f/7.7 refractor + CCD + f/5.9 focal
    reducer.
Orbital elements:
2024 MK                                             PHA, Earth MOID = 0.0018 AU
Epoch 2024 Mar. 31.0 TT = JDT 2460400.5                 Veres                   
M 330.00129              (2000.0)            P               Q                  
n   0.29561579     Peri.   13.21480     +0.35759039     +0.92245501             
a   2.2317778      Node   277.88851     -0.86963015     +0.27207806             
e   0.5478187      Incl.    8.45390     -0.34040051     +0.27395307             
P   3.33           H   21.88          G   0.15           U   0                  
Residuals in seconds of arc
140727 F51  0.3-  0.0     240621 M49  0.1+  0.1+    240626 W74  0.1-  0.1-
140727 F51  0.0   0.1+    240621 X93  0.3+  0.2-    240626 W74  0.1-  0.1-
140729 F51  0.0   0.1-    240621 X93  0.3+  0.2-    240626 Q62  0.0   0.1+
140907 F51  0.2-  0.2+    240621 X93  0.2-  0.1-    240626 Q62  0.1-  0.2+
140907 F51  0.1+  0.0     240621 M49  0.1+  0.1+    240626 Q62  0.1-  0.1-
140907 F51  0.1+  0.1+    240621 M49  0.1+  0.0     240626 K92  0.0   0.0
140907 F51  0.1+  0.1-    240621 M49  0.1+  0.0     240626 K92  0.1-  0.1-
240507 F51  0.0   0.1+    240622 M49  0.0   0.0     240626 K92  0.1-  0.1-
240507 F51  0.1-  0.0     240622 M49  0.1+  0.1+    240626 K92  0.0   0.1-
240507 F51  0.1-  0.2-    240622 M49  0.0   0.0     240626 K92  0.0   0.1-
240507 F51  0.1-  0.1-    240622 M49  0.2+  0.1+    240626 W89  0.0   0.1-
240507 F51  0.1-  0.0     240622 K92  0.0   0.0     240626 W89  0.0   0.2-
240616 M22  0.7-  0.2-    240622 M49  0.1+  0.0     240626 W89  0.1-  0.0
240616 M22  0.1-  0.3+    240622 K92  0.0   0.0     240626 X33  0.1-  0.1-
240616 M22  0.1+  0.1+    240622 M49  0.1+  0.1+    240627 X33  0.3+  0.3-
240616 M22  0.5+  0.3+    240622 K92  0.0   0.0     240627 X33  0.2+  0.4+
240618 Y05  0.1+  0.6+    240622 M49  0.1-  0.0     240627 W88  0.1+  0.1-
240618 Y05  0.0   0.4+    240622 M49  0.2+  0.0     240627 W88  0.1+  0.0
240619 Y05  0.2-  0.1-    240622 K92  0.0   0.0     240627 W88  0.1-  0.1-
240619 E23  0.0   0.4+    240622 M49  0.0   0.0     240627 W74  0.0   0.1-
240619 E23  0.3+  0.1+    240622 Y05  0.0   0.1+    240627 W88  0.1+  0.1-
240619 E23  1.0-  0.2-    240622 Y05  0.2+  0.4+    240627 W88  0.0   0.1-
240619 E23  1.1-  0.1-    240622 Y05  0.3+  0.1+    240627 W74  0.1-  0.1-
240619 E23  0.2+  0.7-    240622 M49  0.1-  0.0     240627 W88  0.0   0.0
240619 E23  0.2+  1.7+    240622 M49  0.0   0.0     240627 W74  0.1-  0.1-
240619 M21  0.1+  0.1+    240622 M49  0.2+  0.1+    240627 W88  0.0   0.1-
240619 M21  0.2-  0.1-    240623 Q62  0.0   0.1+    240627 W74  0.0   0.1-
240619 M21  0.0   0.0     240623 Q62  0.1+  0.2+    240627 W88  0.1-  0.1-
240619 Y05  0.2-  0.0     240623 L09  0.0   0.1-    240627 W74  0.1-  0.1-
240619 Y05  0.1-  0.1+    240623 L09  0.1-  0.0     240627 W74  0.1-  0.1-
240619 Y05  0.1-  0.0     240623 L09  0.1-  0.0     240627 W68 (0.1+  0.1-)
240619 W79  0.0   0.0     240623 M49  0.1+  0.1+    240627 W68 (0.2+  0.1+)
240619 W79  0.0   0.0     240623 M49  0.0   0.0     240627 W68  0.0   0.0
240619 W79  0.1-  0.0     240623 M49  0.1-  0.0     240627 W74  0.2-  0.1-
240620 W68  0.1-  0.2-    240623 M49  0.3+  0.2+    240627 W68  0.0   0.0
240620 W68  0.1+  0.2+    240623 M49  0.1-  0.1-    240627 Q62  0.1+  0.3-
240620 W68  0.2+  0.3+    240623 X93  1.2-  0.5-    240627 Q62  0.0   0.1-
240620 W68  0.5+  0.1-    240623 X93  0.4-  0.3+    240627 Q62  0.2-  0.1-
240620 W68  0.1-  0.1+    240623 X93  0.1+  0.1+    240627 M49  0.1+  0.0
240620 W68  0.3-  0.4-    240623 M49  0.1+  0.1+    240627 M49  0.0   0.1-
240620 W68  0.3-  0.1-    240623 M49  0.1+  0.0     240627 M49  0.2+  0.1-
240620 W68  0.1-  0.2+    240623 M49  0.1+  0.1+    240627 M49  0.1+  0.1-
240620 M49  0.3-  0.4+    240624 Q62  0.1-  0.0     240627 M49  0.2+  0.1-
240620 M49  0.1-  0.0     240624 Q62  0.1-  0.0     240627 M49  0.3+  0.1-
240620 M49  0.2+  0.3+    240625 K93  0.1-  0.0     240628 Q62  0.1+  0.8-
240620 M49  0.0   0.3+    240625 K93  0.0   0.0     240628 Q62  1.4-  0.0
240620 M49  0.1+  0.1-    240625 K93  0.1+  0.0     240628 Q62  1.2-  0.4+
240620 M49  0.4-  0.0     240625 Y05  0.2-  0.1+    240628 Q62  0.2-  0.2-
240620 X93  0.1+  0.2-    240625 Y05  0.1-  0.0     240628 Q62  0.0   0.2-
240620 X93  0.1+  0.0     240625 W74  0.0   0.1-    240628 Q62  0.0   0.2-
240620 X93  0.1+  0.1-    240625 Y05  0.1-  0.0     240628 Q62  0.0   0.2-
240621 M49  0.0   0.0     240626 W74  0.0   0.1-    240628 Q62  0.2-  0.3-
240621 M49  0.0   0.1+    240626 W74  0.1-  0.1-    240628 Q62  0.0   0.3-
240621 M49  0.0   0.1+    240626 W74  0.0   0.1-
Ephemeris:
2024 MK                  a,e,i = 2.23, 0.55, 8                   q = 1.0092
Date    TT    R. A. (2000) Decl.     Delta      r    Elong.  Phase     V
2024 05 29    13 15 42.6 -45 01 58   0.1682  1.1388   135.1    38.9    19.8
...
2024 06 13    13 04 36.7 -45 16 55   0.08810 1.0666   123.4    52.7    18.7
...
2024 06 21    13 07 38.1 -45 33 02   0.04578 1.0387   118.2    59.5    17.4
...
2024 06 27    13 39 07.9 -46 48 04   0.01392 1.0234   119.4    59.9    14.8
2024 06 28    14 08 43.9 -47 24 41   0.0086661.0214   123.7    55.9    13.6
2024 06 29    16 02 22.4 -45 12 59   0.0036661.0195   142.5    37.4    11.3
...
2024 07 05    00 41 28.0 +44 10 32   0.02897 1.0106    77.0   101.4    17.9
...
2024 07 13    00 55 01.2 +44 59 26   0.07101 1.0074    80.6    95.4    19.6
...
2024 07 28    01 02 07.5 +45 21 49   0.1461  1.0282    90.9    80.9    20.6
A. U. Tomatic                (C) Copyright 2024 MPC           M.P.E.C. 2024-M108
    
    
More information about the Iaude
mailing list